Weather in Zavjyalikha

Russia / Chelyabinsk Oblast     54°46′54″N   58°31′55″E
temp.,
°C
wind,
m/s
gust,
m/s
humid.,
%
clouds,
%
prec.,
mm/h
press.,
hPa
HPBL,
m
7 may, fri
fri723:00+5sw118540 0.1 102010
02:00+4ssw22935 0.0 102117
05:00+3s21935 0.0 102213
08:00+9sse12685 0.0 1021219
11:00+16w124316 0.0 10201375
14:00+19nw123210 0.0 10192121
17:00+19n122958 0.0 10172561
20:00+15w1148100 0.0 101736
8 may, sat
sat823:00+10s2162100 0.0 101914
02:00+9sse116099 0.0 101911
05:00+7sse116259 0.0 101910
08:00+12e0152100 0.0 1019139
11:00+17nne2239100 0.0 10171740
14:00+16nw3341100 0.0 10171853
17:00+17nnw3335100 0.0 10162215
20:00+14n2552100 0.0 1016145
9 may, sun
sun923:00+10s0072100 0.0 101710
02:00+9ssw0176100 0.0 101710
05:00+8sse1177100 0.0 101710
08:00+12ne115899 0.0 1017212
11:00+17nne233174 0.0 10162337
14:00+18ene3329100 0.0 10162512
17:00+18ene333199 0.0 10162365
20:00+14ene22476 0.0 101726
10 may, mon
mon1023:00+10ese11665 0.0 101910
02:00+8ese21725 0.0 102014
05:00+8ssw11729 0.0 102112
08:00+13ese11565 0.0 1022253
11:00+18ese13399 0.0 10221857
14:00+20ese3329100 0.0 10212887
17:00+19ese2235100 0.0 10222095
20:00+15ne005196 0.0 102311
11 may, tue
tue1123:00+12sse116246 0.0 102410
02:00+10sse1166100 0.0 102410
05:00+11s1159100 0.0 102414
08:00+14w1258100 0.0 1025121
11:00+17nw3447100 0.0 10251255
14:00+19nnw3641100 0.1 10242335
17:00+18nw465024 1.1 10241727
20:00+13nnw257718 1.2 1025130